Погода в Биньхае

Китай     39°00′04″N   117°39′23″E
темп.,
°C
ветер,
м/с
пор.,
м/с
влажн.,
%
обл.,
%
осадки,
мм/ч
давл.,
гПа
погр.,
м
10 апреля, сб
сб1023:00+9в45735 0.0 1024113
02:00+8всв337985 0.0 102464
05:00+8всв3377100 0.0 102563
08:00+9всв2274100 0.0 102659
11:00+12ю246167 0.0 1026230
14:00+13юв566299 0.0 1023265
17:00+12юв5868100 0.0 1022132
20:00+13ююв7966100 0.0 102397
11 апреля, вс
вс1123:00+13ю7116285 0.0 1024110
02:00+13ююз6105773 0.0 1024197
05:00+11ю61062100 0.0 1024180
08:00+11ю5869100 0.0 1025146
11:00+12ююв5662100 0.0 1025264
14:00+13юв5555100 0.0 1023281
17:00+12вюв5666100 0.0 1021103
20:00+12юв3366100 0.0 102160
12 апреля, пн
пн1223:00+12ююв6978100 0.0 1021131
02:00+10ююв71188100 0.0 1019201
05:00+9юв61096100 0.1 1018199
08:00+9вюв459584 0.1 1018187
11:00+9всв339185 0.0 1018225
14:00+11в238342 0.0 1016289
17:00+12вюв348042 0.0 1015225
20:00+9ююв459372 0.0 1016119
13 апреля, вт
вт1323:00+8всв81395100 0.1 1020357
02:00+10св711586 0.1 1022490
05:00+9всв585949 0.0 1025580
08:00+8всв46513 0.0 1026827
11:00+9ююв33360 0.0 1026834
14:00+11ю673824 0.0 1022938
17:00+12ююз37390 0.0 10201010
20:00+13юз46370 0.0 1020852
14 апреля, ср
ср1423:00+12з46360 0.0 1021204
02:00+11юз46420 0.0 1021200
05:00+10зюз35490 0.0 1020192
08:00+11з34420 0.0 1021157
11:00+14юз23360 0.0 1020326
14:00+15ююв24390 0.0 1017770
17:00+14ююв68510 0.0 1014274
20:00+13ю69520 0.0 1014150